Regional Weather Roundup
Issued by NWS

Home | Current Version | Previous Version | Text Only | Print | Product List | Glossary Off
Versions: 1 2 3 4 5 6 7 8 9 10 11 12 13 14 15 16 17 18 19 20 21 22 23 24 25 26 27 28 29 30 31 32 33 34 35 36 37 38 39 40 41 42 43 44 45 46 47 48 49 50

000
ASUS43 KLMK 282310
RWRKY
KENTUCKY REGIONAL WEATHER ROUNDUP
NATIONAL WEATHER SERVICE LOUISVILLE KY
700 PM EDT THU AUG 28 2014

NOTE "FAIR" INDICATES FEW OR NO CLOUDS BELOW 12,000 FEET
WITH NO SIGNIFICANT WEATHER AND/OR OBSTRUCTIONS TO VISIBILITY.

KYZ001>023-026-027-061>063-070>075-290000-
WESTERN AND SOUTH CENTRAL KENTUCKY

CITY           SKY/WX    TMP DP  RH WIND       PRES   REMARKS
PADUCAH        LGT RAIN  75  71  87 N7        29.99F FOG
HENDERSON      CLOUDY    81  70  69 CALM      30.00R THUNDER
OWENSBORO      CLOUDY    82  73  74 S7        30.01R
HOPKINSVILLE   PTSUNNY   79  79  99 N7        29.99S
BOWLING GREEN  LGT RAIN  74  71  91 NW6       30.01S
GLASGOW        TSTM      75  71  87 NW6       30.01R
$$

KYZ024-025-028>034-038-045-046-053-290000-
NORTH CENTRAL KENTUCKY

CITY           SKY/WX    TMP DP  RH WIND       PRES   REMARKS
LOUISVILLE/SDF MOSUNNY   88  70  55 E8        29.99R HX  93
LOUISVILLE/LOU SUNNY     87  69  54 E7        30.00R HX  91
FORT KNOX      SUNNY     85  71  60 E6        30.00R HX  90
$$

KYZ035>037-039>044-047>052-055>060-089>105-290000-
NORTHEAST KENTUCKY

CITY           SKY/WX    TMP DP  RH WIND       PRES   REMARKS
LEXINGTON      SUNNY     85  68  56 NE7       30.03S
COVINGTON      MOSUNNY   82  63  52 E7        30.04S
FRANKFORT      SUNNY     83  69  62 E7        30.02R
$$

KYZ054-064>069-076>088-106>120-290000-
SOUTHEAST KENTUCKY

CITY           SKY/WX    TMP DP  RH WIND       PRES   REMARKS
JACKSON        SUNNY     80  67  64 CALM      30.06S
LONDON         SUNNY     84  68  58 NE7       30.03F
SOMERSET       SUNNY     84  68  58 NE6       30.02S
MIDDLESBORO    MOSUNNY   86  70  60 CALM      30.02S HX  90
MONTICELLO     CLEAR     87  74  65 CALM      30.02S HX  95
$$



USA.gov is the U.S. government's official web portal to all federal, state and local government web resources and services.